| time (UTC) | temp F | wind direction | speed knots | gust knots | rain 1hr in | rain 24hr in | rain mn in | humidity % | barometer mb |
| 20260903204231 | 88 | 136 | 0.9 | 4.3 | 0.00 | 0.04 | 0.04 | 80 | 1014.3 |
| 20260903203729 | 88 | 156 | 0.9 | 3.5 | 0.00 | 0.04 | 0.04 | 81 | 1014.2 |
| 20260903203233 | 87 | 178 | 0.9 | 5.2 | 0.00 | 0.04 | 0.04 | 79 | 1014.4 |
| 20260903202731 | 88 | 157 | 0.9 | 5.2 | 0.00 | 0.04 | 0.04 | 79 | 1014.3 |
| 20260903202230 | 87 | 162 | 0.9 | 2.6 | 0.00 | 0.04 | 0.04 | 79 | 1014.4 |
| 20260903201731 | 87 | 172 | 0.9 | 2.6 | 0.00 | 0.04 | 0.04 | 80 | 1014.4 |
| 20260903200231 | 87 | 150 | 0.9 | 2.6 | 0.00 | 0.04 | 0.04 | 80 | 1014.5 |
| 20260903195739 | 87 | 165 | 0.0 | 1.7 | 0.00 | 0.04 | 0.04 | 82 | 1014.6 |
| 20260903194731 | 87 | 126 | 0.9 | 2.6 | 0.00 | 0.04 | 0.04 | 80 | 1014.7 |
| 20260903194233 | 87 | 166 | 0.9 | 2.6 | 0.00 | 0.04 | 0.04 | 81 | 1014.7 |
| 20260903193731 | 86 | 188 | 0.9 | 2.6 | 0.00 | 0.04 | 0.04 | 82 | 1014.7 |
| 20260903193229 | 86 | 99 | 0.9 | 1.7 | 0.00 | 0.04 | 0.04 | 83 | 1014.9 |
| 20260903192729 | 86 | 168 | 0.9 | 1.7 | 0.00 | 0.04 | 0.04 | 83 | 1014.9 |
| 20260903192232 | 86 | 185 | 0.9 | 2.6 | 0.00 | 0.04 | 0.04 | 82 | 1014.9 |
| 20260903191732 | 86 | 132 | 0.9 | 2.6 | 0.00 | 0.04 | 0.04 | 82 | 1014.9 |
| 20260903191230 | 86 | 146 | 0.9 | 1.7 | 0.00 | 0.04 | 0.04 | 83 | 1015.0 |
| 20260903190734 | 86 | 145 | 0.9 | 2.6 | 0.00 | 0.04 | 0.04 | 83 | 1015.0 |
| 20260903190228 | 85 | 138 | 0.9 | 2.6 | 0.00 | 0.04 | 0.04 | 83 | 1015.1 |
| 20260903185733 | 85 | 144 | 0.9 | 2.6 | 0.00 | 0.04 | 0.04 | 85 | 1015.1 |
| 20260903185231 | 85 | 134 | 0.9 | 2.6 | 0.00 | 0.04 | 0.04 | 85 | 1015.1 |
| 20260903183733 | 84 | 163 | 0.9 | 4.3 | 0.00 | 0.04 | 0.04 | 85 | 1015.3 |
| 20260903183233 | 85 | 163 | 0.9 | 4.3 | 0.00 | 0.04 | 0.04 | 84 | 1015.5 |
| 20260903182738 | 85 | 185 | 0.9 | 3.5 | 0.00 | 0.04 | 0.04 | 86 | 1015.5 |
| 20260903182257 | 84 | 164 | 0.9 | 3.5 | 0.00 | 0.04 | 0.04 | 85 | 1015.8 |
| 20260903181230 | 84 | 186 | 0.9 | 5.2 | 0.00 | 0.04 | 0.04 | 84 | 1015.9 |
| 20260903180738 | 84 | 136 | 0.9 | 5.2 | 0.00 | 0.04 | 0.04 | 85 | 1015.8 |
| 20260903175730 | 85 | 144 | 0.9 | 3.5 | 0.00 | 0.04 | 0.04 | 86 | 1015.7 |
| 20260903175230 | 85 | 186 | 0.9 | 4.3 | 0.00 | 0.04 | 0.04 | 85 | 1015.6 |
| 20260903174736 | 85 | 115 | 0.9 | 4.3 | 0.00 | 0.04 | 0.04 | 84 | 1015.9 |
| 20260903174229 | 85 | 157 | 0.9 | 5.2 | 0.00 | 0.04 | 0.04 | 86 | 1015.9 |
| 20260903173237 | 85 | 125 | 0.9 | 3.5 | 0.00 | 0.04 | 0.04 | 84 | 1016.1 |
| 20260903172733 | 85 | 118 | 0.9 | 3.5 | 0.00 | 0.04 | 0.04 | 84 | 1016.0 |
| 20260903171735 | 84 | 182 | 0.9 | 2.6 | 0.00 | 0.04 | 0.04 | 86 | 1016.2 |
| 20260903171334 | 84 | 185 | 0.9 | 2.6 | 0.00 | 0.04 | 0.04 | 85 | 1016.1 |
| 20260903170212 | 84 | 177 | 0.9 | 3.5 | 0.00 | 0.04 | 0.04 | 85 | 1016.2 |
| 20260903165717 | 84 | 166 | 0.9 | 3.5 | 0.00 | 0.04 | 0.04 | 84 | 1016.3 |
| 20260903165214 | 84 | 122 | 0.9 | 2.6 | 0.00 | 0.04 | 0.04 | 84 | 1016.4 |
| 20260903164710 | 84 | 104 | 0.9 | 2.6 | 0.00 | 0.04 | 0.04 | 84 | 1016.6 |
| 20260903163705 | 84 | 169 | 0.9 | 3.5 | 0.00 | 0.04 | 0.04 | 85 | 1016.7 |
| 20260903163210 | 84 | 182 | 0.9 | 1.7 | 0.00 | 0.04 | 0.04 | 84 | 1016.6 |
| 20260903162705 | 84 | 140 | 0.9 | 2.6 | 0.00 | 0.04 | 0.04 | 85 | 1016.7 |
| 20260903162210 | 84 | 192 | 0.9 | 4.3 | 0.00 | 0.04 | 0.04 | 84 | 1016.5 |
| 20260903161704 | 84 | 118 | 0.9 | 4.3 | 0.00 | 0.04 | 0.04 | 83 | 1016.5 |
| 20260903161207 | 84 | 170 | 0.9 | 3.5 | 0.00 | 0.04 | 0.04 | 84 | 1016.5 |
| 20260903160707 | 84 | 170 | 0.9 | 1.7 | 0.00 | 0.04 | 0.04 | 84 | 1016.4 |
| 20260903155206 | 84 | 301 | 0.9 | 2.6 | 0.00 | 0.04 | 0.04 | 85 | 1016.3 |
| 20260903154710 | 83 | 286 | 0.9 | 2.6 | 0.00 | 0.04 | 0.04 | 86 | 1016.4 |
| 20260903154206 | 83 | 157 | 0.9 | 2.6 | 0.00 | 0.04 | 0.04 | 87 | 1016.3 |
| 20260903153705 | 83 | 146 | 0.0 | 2.6 | 0.00 | 0.04 | 0.04 | 88 | 1016.4 |
| 20260903153213 | 82 | 148 | 0.0 | 2.6 | 0.00 | 0.04 | 0.04 | 88 | 1016.4 |
| 20260903152225 | 82 | 144 | 0.0 | 2.6 | 0.00 | 0.04 | 0.04 | 89 | 1016.5 |
| 20260903151142 | 81 | 155 | 0.0 | 3.5 | 0.00 | 0.04 | 0.04 | 91 | 1016.4 |
| 20260903150635 | 81 | 153 | 0.0 | 4.3 | 0.00 | 0.04 | 0.04 | 91 | 1016.4 |
| 20260903150132 | 80 | 159 | 0.9 | 4.3 | 0.00 | 0.04 | 0.04 | 92 | 1016.4 |
| 20260903145635 | 80 | 160 | 0.0 | 2.6 | 0.00 | 0.04 | 0.04 | 93 | 1016.4 |
| 20260903145136 | 80 | 173 | 0.0 | 2.6 | 0.00 | 0.04 | 0.04 | 94 | 1016.6 |
| 20260903144635 | 79 | 172 | 0.0 | 2.6 | 0.00 | 0.04 | 0.04 | 95 | 1016.7 |
| 20260903144130 | 79 | 165 | 0.0 | 1.7 | 0.00 | 0.04 | 0.04 | 96 | 1016.6 |
| 20260903143634 | 78 | 165 | 0.0 | 1.7 | 0.00 | 0.04 | 0.04 | 95 | 1016.7 |
| 20260903143134 | 78 | 190 | 0.0 | 1.7 | 0.00 | 0.04 | 0.04 | 96 | 1016.8 |
| 20260903142628 | 78 | 196 | 0.0 | 0.9 | 0.00 | 0.04 | 0.04 | 98 | 1016.9 |
| 20260903141132 | 77 | 196 | 0.0 | 0.0 | 0.00 | 0.04 | 0.04 | 97 | 1016.7 |
| 20260903140630 | 77 | 196 | 0.0 | 0.0 | 0.00 | 0.04 | 0.04 | 97 | 1016.8 |
| 20260903135129 | 76 | 196 | 0.0 | 0.0 | 0.00 | 0.04 | 0.04 | 98 | 1016.7 |
| 20260903134632 | 76 | 196 | 0.0 | 0.0 | 0.00 | 0.04 | 0.04 | 99 | 1017.0 |
| 20260903134131 | 76 | 196 | 0.0 | 0.0 | 0.00 | 0.04 | 0.04 | 99 | 1016.9 |
| 20260903133625 | 76 | 196 | 0.0 | 0.0 | 0.00 | 0.04 | 0.04 | 100 | 1017.1 |
| 20260903133123 | 76 | 196 | 0.0 | 0.0 | 0.00 | 0.04 | 0.04 | 100 | 1017.2 |
| 20260903132117 | 75 | 196 | 0.0 | 0.0 | 0.00 | 0.04 | 0.04 | 100 | 1017.4 |
| 20260903131621 | 75 | 196 | 0.0 | 0.0 | 0.00 | 0.04 | 0.04 | 100 | 1017.4 |
| 20260903131119 | 75 | 196 | 0.0 | 0.0 | 0.00 | 0.04 | 0.04 | 100 | 1017.4 |
| 20260903130112 | 76 | 196 | 0.0 | 0.0 | 0.00 | 0.04 | 0.04 | 100 | 1018.0 |
| 20260903125613 | 75 | 196 | 0.0 | 0.0 | 0.00 | 0.04 | 0.04 | 100 | 1018.1 |
| 20260903124116 | 75 | 196 | 0.0 | 0.0 | 0.00 | 0.04 | 0.04 | 100 | 1018.4 |
| 20260903123619 | 75 | 196 | 0.0 | 0.0 | 0.00 | 0.04 | 0.04 | 100 | 1018.7 |
| 20260903123108 | 75 | 196 | 0.0 | 0.0 | 0.00 | 0.04 | 0.04 | 100 | 1018.7 |
| 20260903122616 | 75 | 196 | 0.0 | 0.0 | 0.00 | 0.04 | 0.04 | 100 | 1018.8 |
| 20260903122108 | 75 | 196 | 0.0 | 0.0 | 0.00 | 0.04 | 0.04 | 100 | 1018.9 |
| 20260903121105 | 75 | 196 | 0.0 | 0.0 | 0.00 | 0.04 | 0.04 | 100 | 1018.8 |
| 20260903120609 | 74 | 196 | 0.0 | 0.0 | 0.00 | 0.04 | 0.04 | 100 | 1018.8 |
| 20260903120105 | 74 | 196 | 0.0 | 0.0 | 0.00 | 0.04 | 0.04 | 100 | 1018.8 |
| 20260903114106 | 74 | 196 | 0.0 | 0.0 | 0.00 | 0.04 | 0.04 | 100 | 1018.7 |
| 20260903113608 | 74 | 196 | 0.0 | 0.0 | 0.00 | 0.04 | 0.04 | 100 | 1018.5 |
| 20260903113109 | 75 | 196 | 0.0 | 0.0 | 0.00 | 0.04 | 0.04 | 100 | 1018.4 |
| 20260903112107 | 74 | 196 | 0.0 | 0.9 | 0.00 | 0.04 | 0.04 | 100 | 1018.4 |
| 20260903111607 | 75 | 196 | 0.0 | 0.9 | 0.00 | 0.04 | 0.04 | 100 | 1018.1 |
| 20260903111109 | 75 | 196 | 0.0 | 0.0 | 0.00 | 0.04 | 0.04 | 100 | 1018.3 |
| 20260903110606 | 75 | 196 | 0.0 | 0.0 | 0.01 | 0.04 | 0.04 | 100 | 1018.2 |
| 20260903110105 | 75 | 196 | 0.0 | 0.0 | 0.01 | 0.04 | 0.04 | 100 | 1018.1 |
| 20260903105609 | 75 | 196 | 0.0 | 0.0 | 0.01 | 0.04 | 0.04 | 100 | 1018.2 |
| 20260903105107 | 75 | 196 | 0.0 | 0.0 | 0.01 | 0.04 | 0.04 | 100 | 1018.1 |
| 20260903103602 | 75 | 196 | 0.0 | 0.9 | 0.01 | 0.04 | 0.04 | 100 | 1018.1 |
| 20260903103103 | 75 | 196 | 0.9 | 1.7 | 0.01 | 0.04 | 0.04 | 100 | 1018.1 |
| 20260903102102 | 75 | 192 | 0.9 | 1.7 | 0.01 | 0.04 | 0.04 | 100 | 1018.0 |
| 20260903101056 | 75 | 192 | 0.0 | 0.0 | 0.01 | 0.04 | 0.03 | 100 | 1017.5 |
| 20260903100552 | 75 | 192 | 0.0 | 0.0 | 0.00 | 0.03 | 0.03 | 100 | 1017.4 |
| 20260903100044 | 75 | 192 | 0.0 | 0.0 | 0.00 | 0.03 | 0.03 | 100 | 1017.4 |
| 20260903095541 | 74 | 192 | 0.0 | 0.0 | 0.00 | 0.03 | 0.03 | 100 | 1017.5 |
| 20260903095045 | 75 | 192 | 0.0 | 0.0 | 0.00 | 0.03 | 0.03 | 100 | 1017.4 |
| 20260903094539 | 75 | 192 | 0.0 | 0.0 | 0.00 | 0.03 | 0.03 | 100 | 1017.5 |
| 20260903094035 | 75 | 192 | 0.0 | 0.0 | 0.00 | 0.03 | 0.03 | 100 | 1017.5 |
| 20260903093541 | 75 | 192 | 0.0 | 0.0 | 0.00 | 0.03 | 0.03 | 100 | 1017.4 |
| 20260903093042 | 75 | 192 | 0.0 | 0.0 | 0.01 | 0.03 | 0.03 | 100 | 1017.2 |
| 20260903092535 | 75 | 192 | 0.0 | 0.0 | 0.01 | 0.03 | 0.03 | 100 | 1017.3 |
| 20260903092034 | 75 | 192 | 0.0 | 0.0 | 0.01 | 0.03 | 0.03 | 100 | 1017.5 |
| 20260903091533 | 75 | 192 | 0.0 | 0.0 | 0.02 | 0.03 | 0.03 | 100 | 1017.4 |
| 20260903091034 | 75 | 192 | 0.0 | 0.0 | 0.03 | 0.03 | 0.03 | 100 | 1017.3 |
| 20260903090535 | 75 | 192 | 0.0 | 0.0 | 0.03 | 0.03 | 0.03 | 100 | 1017.2 |
| 20260903090031 | 75 | 192 | 0.0 | 0.0 | 0.03 | 0.03 | 0.03 | 100 | 1017.2 |
| 20260903085532 | 75 | 192 | 0.0 | 0.0 | 0.03 | 0.03 | 0.03 | 100 | 1017.2 |
| 20260903084534 | 75 | 192 | 0.0 | 0.0 | 0.03 | 0.03 | 0.03 | 100 | 1017.5 |
| 20260903084035 | 75 | 192 | 0.0 | 0.0 | 0.03 | 0.03 | 0.03 | 100 | 1017.7 |
| 20260903083537 | 75 | 192 | 0.0 | 0.9 | 0.03 | 0.03 | 0.03 | 100 | 1017.7 |
| 20260903083033 | 75 | 192 | 0.0 | 0.9 | 0.02 | 0.02 | 0.02 | 100 | 1017.9 |
| 20260903082524 | 75 | 192 | 0.0 | 0.0 | 0.02 | 0.02 | 0.02 | 100 | 1017.6 |
| 20260903082030 | 75 | 192 | 0.0 | 0.9 | 0.02 | 0.02 | 0.02 | 100 | 1017.4 |
| 20260903081523 | 75 | 192 | 0.0 | 0.9 | 0.01 | 0.01 | 0.01 | 100 | 1017.4 |
| 20260903081021 | 75 | 192 | 0.0 | 1.7 | 0.00 | 0.00 | 0.00 | 100 | 1017.8 |
| 20260903080021 | 75 | 192 | 0.9 | 1.7 | 0.00 | 0.00 | 0.00 | 100 | 1018.2 |
| 20260903075022 | 75 | 196 | 0.0 | 1.7 | 0.00 | 0.00 | 0.00 | 100 | 1018.2 |
| 20260903074517 | 75 | 204 | 0.0 | 0.9 | 0.00 | 0.00 | 0.00 | 100 | 1017.9 |
| 20260903074020 | 75 | 204 | 0.9 | 0.9 | 0.00 | 0.00 | 0.00 | 100 | 1017.7 |
| 20260903073516 | 75 | 204 | 0.0 | 0.9 | 0.00 | 0.00 | 0.00 | 100 | 1017.6 |
| 20260903072518 | 75 | 204 | 0.0 | 0.0 | 0.00 | 0.00 | 0.00 | 100 | 1017.0 |
| 20260903072010 | 75 | 204 | 0.0 | 0.0 | 0.00 | 0.00 | 0.00 | 100 | 1016.7 |
| 20260903070506 | 75 | 204 | 0.0 | 0.9 | 0.00 | 0.00 | 0.00 | 100 | 1016.7 |
| 20260903070036 | 74 | 204 | 0.0 | 0.0 | 0.00 | 0.00 | 0.00 | 100 | 1016.5 |
| 20260903065006 | 74 | 204 | 0.0 | 0.0 | 0.00 | 0.00 | 0.00 | 100 | 1016.5 |
| 20260903064506 | 74 | 204 | 0.0 | 0.0 | 0.00 | 0.00 | 0.00 | 100 | 1016.7 |
| 20260903064002 | 74 | 204 | 0.0 | 0.0 | 0.00 | 0.00 | 0.00 | 100 | 1016.8 |
| 20260903063458 | 74 | 204 | 0.0 | 0.0 | 0.00 | 0.00 | 0.00 | 100 | 1016.9 |
| 20260903062455 | 74 | 204 | 0.0 | 0.0 | 0.00 | 0.00 | 0.00 | 99 | 1016.2 |
| 20260903061950 | 74 | 204 | 0.0 | 0.0 | 0.00 | 0.00 | 0.00 | 99 | 1016.2 |
| 20260903061447 | 74 | 204 | 0.0 | 0.0 | 0.00 | 0.00 | 0.00 | 99 | 1016.7 |
| 20260903060946 | 74 | 204 | 0.0 | 0.0 | 0.00 | 0.00 | 0.00 | 99 | 1016.9 |
| 20260903055946 | 74 | 204 | 0.0 | 0.0 | 0.00 | 0.00 | 0.00 | 99 | 1017.1 |
| 20260903055447 | 74 | 204 | 0.0 | 0.0 | 0.00 | 0.00 | 0.00 | 99 | 1017.1 |
| 20260903054944 | 74 | 204 | 0.0 | 0.0 | 0.00 | 0.00 | 0.00 | 99 | 1017.3 |
| 20260903054440 | 74 | 204 | 0.0 | 0.0 | 0.00 | 0.00 | 0.00 | 99 | 1017.2 |
| 20260903053936 | 75 | 204 | 0.0 | 0.0 | 0.00 | 0.00 | 0.00 | 99 | 1017.4 |
| 20260903053438 | 75 | 204 | 0.0 | 0.0 | 0.00 | 0.01 | 0.00 | 99 | 1017.6 |
| 20260903052934 | 75 | 204 | 0.0 | 0.0 | 0.00 | 0.01 | 0.00 | 99 | 1017.5 |
| 20260903051935 | 75 | 204 | 0.0 | 0.0 | 0.00 | 0.01 | 0.00 | 99 | 1017.7 |
| 20260903051434 | 75 | 204 | 0.0 | 0.0 | 0.00 | 0.01 | 0.00 | 99 | 1017.7 |
| 20260903050941 | 75 | 204 | 0.0 | 0.0 | 0.00 | 0.02 | 0.00 | 99 | 1017.7 |
| 20260903050437 | 75 | 204 | 0.0 | 0.0 | 0.00 | 0.04 | 0.00 | 99 | 1018.0 |
| 20260903045933 | 75 | 204 | 0.0 | 0.0 | 0.00 | 0.13 | 0.00 | 99 | 1017.8 |
| 20260903045430 | 75 | 204 | 0.0 | 0.0 | 0.00 | 0.45 | 0.00 | 99 | 1017.6 |
| 20260903044932 | 75 | 204 | 0.0 | 0.0 | 0.00 | 0.67 | 0.00 | 99 | 1017.6 |
| 20260903044428 | 75 | 204 | 0.0 | 0.0 | 0.00 | 0.89 | 0.00 | 99 | 1017.5 |
| 20260903043929 | 75 | 204 | 0.0 | 0.0 | 0.00 | 0.95 | 0.00 | 99 | 1017.4 |
| 20260903042926 | 75 | 204 | 0.0 | 0.0 | 0.00 | 0.95 | 0.00 | 99 | 1017.8 |
| 20260903042420 | 75 | 204 | 0.0 | 0.0 | 0.00 | 0.95 | 0.00 | 99 | 1018.0 |
| 20260903041924 | 75 | 204 | 0.0 | 0.0 | 0.00 | 0.95 | 0.00 | 99 | 1018.1 |
| 20260903041419 | 75 | 204 | 0.0 | 0.0 | 0.00 | 0.95 | 0.00 | 99 | 1018.2 |
| 20260903040918 | 75 | 204 | 0.0 | 0.0 | 0.00 | 0.95 | 0.00 | 99 | 1018.1 |
| 20260903040415 | 75 | 204 | 0.0 | 0.0 | 0.00 | 0.95 | 0.00 | 99 | 1018.0 |
| 20260903035917 | 75 | 204 | 0.0 | 0.0 | 0.00 | 0.95 | 0.95 | 99 | 1018.0 |
| 20260903035422 | 75 | 204 | 0.0 | 0.0 | 0.00 | 0.96 | 0.95 | 99 | 1017.9 |
| 20260903034918 | 75 | 204 | 0.0 | 0.0 | 0.00 | 0.96 | 0.95 | 99 | 1018.0 |
| 20260903034419 | 75 | 204 | 0.0 | 0.0 | 0.00 | 0.96 | 0.95 | 99 | 1017.9 |
| 20260903033916 | 75 | 204 | 0.0 | 0.0 | 0.00 | 0.97 | 0.95 | 99 | 1017.7 |
| 20260903033417 | 75 | 204 | 0.0 | 0.0 | 0.00 | 0.97 | 0.95 | 99 | 1017.7 |
| 20260903032920 | 75 | 204 | 0.0 | 0.0 | 0.00 | 0.99 | 0.95 | 99 | 1017.9 |
| 20260903032417 | 75 | 204 | 0.0 | 0.0 | 0.00 | 1.01 | 0.95 | 99 | 1017.9 |
| 20260903031916 | 75 | 204 | 0.0 | 0.0 | 0.00 | 1.01 | 0.95 | 99 | 1018.2 |
| 20260903031419 | 75 | 204 | 0.0 | 0.0 | 0.00 | 1.03 | 0.95 | 99 | 1018.0 |
| 20260903030916 | 75 | 204 | 0.0 | 0.0 | 0.00 | 1.03 | 0.95 | 99 | 1017.9 |
| 20260903025911 | 75 | 204 | 0.0 | 0.0 | 0.00 | 1.03 | 0.95 | 98 | 1018.1 |
| 20260903025416 | 75 | 204 | 0.0 | 0.0 | 0.00 | 1.03 | 0.95 | 98 | 1018.1 |
| 20260903024907 | 75 | 204 | 0.0 | 0.0 | 0.00 | 1.03 | 0.95 | 98 | 1018.2 |
| 20260903024423 | 75 | 204 | 0.0 | 0.0 | 0.00 | 1.03 | 0.95 | 98 | 1018.2 |
| 20260903022912 | 75 | 204 | 0.0 | 0.0 | 0.00 | 1.03 | 0.95 | 98 | 1017.9 |
| 20260903022413 | 75 | 204 | 0.0 | 0.0 | 0.00 | 1.03 | 0.95 | 98 | 1017.8 |
| 20260903021912 | 75 | 204 | 0.0 | 0.0 | 0.00 | 1.03 | 0.95 | 98 | 1017.8 |
| 20260903020404 | 75 | 204 | 0.0 | 0.0 | 0.00 | 1.03 | 0.95 | 98 | 1017.8 |
| 20260903015404 | 75 | 204 | 0.0 | 0.0 | 0.00 | 1.03 | 0.95 | 98 | 1018.0 |
| 20260903014900 | 75 | 204 | 0.0 | 0.0 | 0.00 | 1.03 | 0.95 | 98 | 1018.0 |
| 20260903013900 | 75 | 204 | 0.0 | 0.0 | 0.00 | 1.03 | 0.95 | 98 | 1018.0 |
| 20260903013357 | 75 | 204 | 0.0 | 0.0 | 0.00 | 1.03 | 0.95 | 98 | 1018.0 |
| 20260903011851 | 75 | 204 | 0.0 | 0.0 | 0.00 | 1.03 | 0.95 | 98 | 1018.1 |
| 20260903011352 | 75 | 204 | 0.0 | 0.0 | 0.00 | 1.03 | 0.95 | 98 | 1018.3 |
| 20260903010847 | 75 | 204 | 0.0 | 0.0 | 0.00 | 1.03 | 0.95 | 98 | 1018.4 |
| 20260903005342 | 75 | 204 | 0.0 | 0.0 | 0.00 | 1.03 | 0.95 | 97 | 1018.2 |
| 20260903004846 | 75 | 204 | 0.0 | 0.0 | 0.00 | 1.03 | 0.95 | 97 | 1018.1 |
| 20260903003834 | 76 | 204 | 0.0 | 0.0 | 0.00 | 1.03 | 0.95 | 97 | 1018.0 |
| 20260903002837 | 76 | 204 | 0.0 | 0.0 | 0.00 | 1.03 | 0.95 | 97 | 1017.8 |
| 20260903002338 | 76 | 204 | 0.0 | 0.0 | 0.00 | 1.03 | 0.95 | 97 | 1017.8 |
| 20260903001833 | 76 | 204 | 0.0 | 0.0 | 0.00 | 1.03 | 0.95 | 97 | 1017.8 |
| 20260903001337 | 76 | 204 | 0.0 | 0.0 | 0.00 | 1.03 | 0.95 | 97 | 1017.8 |
| 20260903000333 | 76 | 204 | 0.0 | 0.0 | 0.00 | 1.03 | 0.95 | 97 | 1017.9 |
| 20260902235835 | 76 | 204 | 0.0 | 0.9 | 0.00 | 1.03 | 0.95 | 97 | 1017.8 |
| 20260902235332 | 76 | 204 | 0.0 | 0.9 | 0.00 | 1.03 | 0.95 | 97 | 1017.6 |
| 20260902234832 | 76 | 204 | 0.0 | 0.9 | 0.00 | 1.03 | 0.95 | 97 | 1017.6 |
| 20260902233831 | 76 | 204 | 0.0 | 0.0 | 0.00 | 1.03 | 0.95 | 97 | 1017.9 |
| 20260902233333 | 76 | 204 | 0.0 | 0.0 | 0.00 | 1.03 | 0.95 | 97 | 1018.1 |
| 20260902232330 | 76 | 204 | 0.0 | 0.0 | 0.00 | 1.03 | 0.95 | 97 | 1017.9 |
| 20260902231837 | 76 | 204 | 0.0 | 0.9 | 0.00 | 1.03 | 0.95 | 97 | 1017.8 |
| 20260902231333 | 76 | 204 | 0.0 | 0.9 | 0.00 | 1.03 | 0.95 | 97 | 1017.8 |
| 20260902224830 | 76 | 204 | 0.0 | 0.0 | 0.00 | 1.03 | 0.95 | 97 | 1017.9 |
| 20260902223834 | 76 | 204 | 0.0 | 0.0 | 0.00 | 1.03 | 0.95 | 96 | 1017.8 |
| 20260902223331 | 76 | 204 | 0.0 | 0.9 | 0.00 | 1.03 | 0.95 | 97 | 1017.8 |
| 20260902222822 | 76 | 204 | 0.0 | 0.9 | 0.00 | 1.03 | 0.95 | 96 | 1017.9 |
| 20260902222316 | 76 | 204 | 0.0 | 0.9 | 0.00 | 1.03 | 0.95 | 96 | 1018.1 |
| 20260902221311 | 76 | 204 | 0.0 | 0.9 | 0.00 | 1.03 | 0.95 | 96 | 1018.5 |
| 20260902220811 | 76 | 204 | 0.0 | 0.9 | 0.00 | 1.03 | 0.95 | 96 | 1018.5 |
| 20260902220308 | 76 | 204 | 0.0 | 0.9 | 0.00 | 1.03 | 0.95 | 96 | 1018.5 |
| 20260902215306 | 76 | 204 | 0.0 | 0.9 | 0.00 | 1.03 | 0.95 | 96 | 1018.4 |
| 20260902214807 | 76 | 204 | 0.0 | 0.9 | 0.00 | 1.03 | 0.95 | 96 | 1018.4 |
| 20260902213809 | 76 | 204 | 0.0 | 0.0 | 0.00 | 1.03 | 0.95 | 96 | 1018.3 |
| 20260902213305 | 76 | 204 | 0.0 | 0.9 | 0.00 | 1.03 | 0.95 | 96 | 1018.4 |
| 20260902212805 | 76 | 204 | 0.0 | 0.9 | 0.00 | 1.03 | 0.95 | 96 | 1018.5 |
| 20260902211804 | 76 | 204 | 0.0 | 0.9 | 0.00 | 1.03 | 0.95 | 97 | 1018.6 |
| 20260902210801 | 76 | 204 | 0.0 | 1.7 | 0.00 | 1.03 | 0.95 | 98 | 1017.8 |
| 20260902210305 | 76 | 204 | 0.9 | 1.7 | 0.00 | 1.03 | 0.95 | 97 | 1018.3 |